Regional Weather Roundup
Issued by NWS

Home | Current Version | Previous Version | Graphics & Text | Print | Product List | Glossary On
Versions: 1 2 3 4 5 6 7 8 9 10 11 12 13 14 15 16 17 18 19 20 21 22 23 24 25 26 27 28 29 30 31 32 33 34 35 36 37 38 39 40 41 42 43 44 45 46 47 48 49 50
000
ASUS43 KOAX 232310
RWRNE

WEATHER ROUNDUP FOR NEBRASKA
NATIONAL WEATHER SERVICE OMAHA NE
600 PM CDT THU OCT 23 2014

NOTES: SATELLITE DATA IS BEING USED TO AUGMENT CLOUD COVER ABOVE
       12000 FEET.
       "FAIR" INDICATES FEW OR NO CLOUDS BELOW 12,000 FEET WITH NO
       SIGNIFICANT WEATHER AND/OR OBSTRUCTIONS TO VISIBILITY.

  * THESE STATIONS DO NOT REPORT WEATHER SUCH AS RAIN...SNOW OR FOG.

NEZ001>004-019>022-054>056-240000-
NEBRASKA PANHANDLE

CITY           SKY/WX    TMP DP  RH WIND       PRES   REMARKS
SCOTTSBLUFF    CLEAR     72  33  24 W12       29.97F
ALLIANCE       CLEAR     65  32  29 SW9       29.96F
CHADRON        CLEAR     64  43  46 S7        29.90F
KIMBALL        SUNNY     66  33  29 SW8       30.04S
SIDNEY         CLEAR     68  38  33 SW8       30.03F
$$

NEZ057>060-069>072-079>082-240000-
SOUTHWEST NEBRASKA

CITY           SKY/WX    TMP DP  RH WIND       PRES   REMARKS
NORTH PLATTE   CLOUDY    71  43  36 S3        29.97S
IMPERIAL       PTCLDY    74  36  25 W6        30.01R
LEXINGTON      CLOUDY    65  56  73 SE9       30.00S
MCCOOK         MOCLDY    71  48  43 S9        30.01S
OGALLALA       PTCLDY    74  36  24 SW6       29.99S
$$

NEZ005>010-023>029-035>040-094-240000-
NORTH CENTRAL NEBRASKA

CITY           SKY/WX    TMP DP  RH WIND       PRES   REMARKS
VALENTINE      CLOUDY    68  33  27 SW5       29.91F
AINSWORTH      CLOUDY    66  40  38 CALM      29.92F
BROKEN BOW     CLOUDY    66  50  56 S9        29.98S
O`NEILL        MOCLDY    66  47  50 S6        29.95S
ORD              N/A     65  51  60 S8        29.96F
THEDFORD       CLOUDY    72  38  28 SW6       29.96S
$$

NEZ041-046>049-061>064-073>077-083>087-240000-
SOUTH CENTRAL NEBRASKA

CITY           SKY/WX    TMP DP  RH WIND       PRES   REMARKS
GRAND ISLAND   MOCLDY    61  55  81 S7        30.02R
AURORA         PTCLDY    61  57  84 S5        30.01S
HASTINGS       MOCLDY    59  54  83 SW5       30.02F
HEBRON         CLEAR     66  55  67 SW5       30.02S
HOLDREGE       CLOUDY    59  55  88 CALM      30.02S
KEARNEY *      CLOUDY    57  54  88 S8        30.03R
YORK           PTCLDY    64  55  72 SW5       30.02R
$$

NEZ011>018-030>034-042>045-240000-
NORTHEAST NEBRASKA

CITY           SKY/WX    TMP DP  RH WIND       PRES   REMARKS
NORFOLK        CLEAR     61  49  64 S6        29.98S
ALBION         PTCLDY    62  51  66 S3        29.99S
BLAIR          CLEAR     65  47  52 S5        30.01S
COLUMBUS *     CLEAR     66  48  52 S7        30.01S
FREMONT        CLEAR     66  44  44 S7        30.01S
TEKAMAH        CLEAR     66  50  56 S7        29.99S
WAYNE          CLEAR     64  45  51 S9        29.98F
$$

NEZ050>053-065>068-078-088>093-240000-
SOUTHEAST NEBRASKA

CITY           SKY/WX    TMP DP  RH WIND       PRES   REMARKS
LINCOLN        CLEAR     69  50  50 E3        30.02R
OMAHA EPPLEY   PTCLDY    69  47  45 S6        30.01S
BEATRICE       CLEAR     69  50  50 S5        30.01S
FALLS CITY     CLEAR     70  54  56 S3        30.01S
NEBRASKA CITY  CLEAR     69  37  30 CALM      30.02R
PLATTSMOUTH    CLEAR     65  47  51 S3        30.02S
$$

NEZ044-045-051>053-067-240000-
OMAHA AREA

CITY           SKY/WX    TMP DP  RH WIND       PRES   REMARKS
OMAHA EPPLEY   PTCLDY    69  47  45 S6        30.01S
BLAIR          CLEAR     65  47  52 S5        30.01S
FREMONT        CLEAR     66  44  44 S7        30.01S
MILLARD        CLEAR     68  52  56 CALM      30.01S
OFFUTT AFB     CLEAR     68  51  53 SW5       30.00S
PLATTSMOUTH    CLEAR     65  47  51 S3        30.02S
WAHOO          FAIR      64  44  47 SE6       30.01S
$$



USA.gov is the U.S. government's official web portal to all federal, state and local government web resources and services.